KA1AL Weather Reports


time (UTC)temp
C
wind
direction
speed
KPH
gust
KPH
rain 1hr
cm
rain 24hr
cm
rain mn
cm
humidity
%
barometer
mb
20260504232156 12 125 0.0 0.0 0.00 0.05 0.05 75 1005.3
20260504231653 12 140 0.0 0.0 0.00 0.05 0.05 75 1005.2
20260504231150 12 126 0.0 0.0 0.00 0.05 0.05 75 1005.0
20260504230646 12 165 0.0 0.0 0.00 0.05 0.05 73 1004.9
20260504230145 12 189 0.0 0.0 0.00 0.05 0.05 73 1005.0
20260504225643 12 213 3.2 3.2 0.00 0.05 0.05 73 1005.1
20260504225138 12 254 4.8 4.8 0.00 0.05 0.05 72 1004.9
20260504224635 12 263 4.8 4.8 0.00 0.05 0.05 72 1004.6
20260504224132 12 258 4.8 4.8 0.00 0.05 0.05 72 1004.8
20260504223629 12 226 4.8 4.8 0.00 0.05 0.05 72 1004.8
20260504223125 12 201 1.6 3.2 0.00 0.05 0.05 73 1004.6
20260504222622 12 199 4.8 8.0 0.00 0.05 0.05 73 1004.7
20260504222120 12 236 8.0 9.7 0.00 0.05 0.05 73 1004.6
20260504221616 13 278 8.0 9.7 0.00 0.05 0.05 72 1004.7
20260504221114 12 220 6.4 8.0 0.00 0.05 0.05 73 1004.8
20260504220610 12 303 4.8 8.0 0.00 0.05 0.05 73 1005.0
20260504220108 12 223 4.8 4.8 0.00 0.05 0.05 73 1004.6
20260504215603 13 266 6.4 11.3 0.00 0.05 0.05 72 1004.7
20260504215101 12 232 6.4 8.0 0.00 0.05 0.05 71 1004.8
20260504214557 12 267 6.4 9.7 0.00 0.05 0.05 73 1004.6
20260504214053 12 275 8.0 9.7 0.00 0.05 0.05 72 1004.7
20260504213550 13 234 12.9 14.5 0.00 0.05 0.05 71 1004.8
20260504213047 13 244 11.3 16.1 0.00 0.05 0.05 71 1004.5
20260504212543 13 280 8.0 12.9 0.00 0.05 0.05 71 1004.7
20260504212040 12 213 1.6 4.8 0.00 0.05 0.05 74 1004.5
20260504211537 12 217 9.7 14.5 0.00 0.05 0.05 73 1004.6
20260504211034 12 272 16.1 20.9 0.00 0.05 0.05 72 1004.7
20260504210531 12 261 9.7 12.9 0.00 0.05 0.05 73 1004.2
20260504210028 12 290 11.3 12.9 0.00 0.05 0.05 73 1004.2
20260504205526 12 243 6.4 8.0 0.00 0.05 0.05 74 1004.5
20260504205023 12 265 8.0 8.0 0.00 0.05 0.05 74 1004.6
20260504204521 12 233 11.3 14.5 0.00 0.05 0.05 74 1004.4
20260504204020 12 241 11.3 14.5 0.00 0.05 0.05 74 1004.7
20260504203518 12 260 16.1 17.7 0.00 0.05 0.05 74 1004.6
20260504203015 12 301 11.3 17.7 0.00 0.05 0.05 74 1004.2
20260504202510 12 239 17.7 24.1 0.00 0.05 0.05 73 1004.0
20260504202007 12 260 14.5 17.7 0.00 0.05 0.05 73 1004.0
20260504201504 12 265 9.7 11.3 0.00 0.05 0.05 74 1004.2
20260504201002 12 245 14.5 14.5 0.00 0.05 0.05 74 1004.2
20260504200458 12 287 16.1 20.9 0.00 0.05 0.05 72 1004.4
20260504195955 12 228 11.3 12.9 0.00 0.05 0.05 74 1004.1
20260504195451 11 171 6.4 9.7 0.00 0.05 0.05 75 1004.5
20260504194948 11 248 12.9 16.1 0.00 0.05 0.05 74 1004.4
20260504194444 11 259 17.7 22.5 0.00 0.05 0.05 74 1003.9
20260504193940 12 281 17.7 24.1 0.00 0.05 0.05 72 1004.1
20260504193437 12 258 9.7 17.7 0.00 0.05 0.05 74 1004.0
20260504192936 11 306 27.4 33.8 0.00 0.05 0.05 74 1004.2
20260504192432 12 304 14.5 20.9 0.00 0.05 0.05 74 1004.2
20260504191932 12 245 19.3 25.7 0.00 0.05 0.05 74 1003.9
20260504191429 11 242 17.7 32.2 0.00 0.05 0.05 75 1004.1
20260504190924 11 284 20.9 25.7 0.00 0.05 0.05 73 1003.9
20260504190420 12 281 14.5 17.7 0.00 0.05 0.05 75 1004.1
20260504185917 11 237 11.3 16.1 0.00 0.05 0.05 77 1004.2
20260504185414 11 228 16.1 22.5 0.00 0.05 0.05 77 1004.0
20260504184910 11 293 8.0 11.3 0.00 0.05 0.05 79 1004.0
20260504184406 11 256 8.0 11.3 0.00 0.05 0.05 78 1004.1
20260504183902 11 271 16.1 20.9 0.00 0.05 0.05 78 1004.1
20260504183400 11 262 19.3 32.2 0.00 0.05 0.05 78 1004.1
20260504182857 11 246 4.8 8.0 0.00 0.05 0.05 77 1004.0
20260504182354 12 239 8.0 9.7 0.00 0.05 0.05 79 1004.0
20260504181851 11 290 11.3 14.5 0.00 0.05 0.05 78 1003.9
20260504181348 11 294 11.3 16.1 0.00 0.05 0.05 79 1004.0
20260504180847 11 275 14.5 17.7 0.00 0.05 0.05 82 1004.2
20260504180345 10 274 11.3 16.1 0.00 0.05 0.05 83 1004.1
20260504175843 10 245 16.1 20.9 0.00 0.05 0.05 84 1003.9
20260504175339 10 258 9.7 12.9 0.00 0.05 0.05 86 1004.1
20260504174838 9 240 12.9 14.5 0.00 0.05 0.05 88 1004.2
20260504174335 9 226 11.3 11.3 0.00 0.05 0.05 90 1004.4
20260504173832 9 234 9.7 11.3 0.00 0.05 0.05 92 1004.1
20260504173328 8 243 11.3 11.3 0.00 0.05 0.05 92 1004.4
20260504172826 9 204 12.9 14.5 0.00 0.05 0.05 90 1004.5
20260504172322 9 261 12.9 14.5 0.18 0.05 0.05 88 1004.6
20260504171818 10 225 12.9 16.1 0.18 0.05 0.05 85 1004.5
20260504171315 10 216 16.1 20.9 0.00 0.03 0.03 83 1004.2
20260504170812 10 258 17.7 22.5 0.00 0.03 0.03 83 1004.1
20260504170309 9 224 12.9 14.5 0.00 0.03 0.03 84 1004.2
20260504160227 8 214 6.4 8.0 0.00 0.00 0.00 87 1004.2
20260504150653 9 210 16.1 22.5 0.00 0.00 0.00 71 1004.0
20260504150150 10 189 11.3 16.1 0.00 0.00 0.00 70 1004.1
20260504141118 8 243 22.5 25.7 0.00 0.00 0.00 70 1005.2
20260504140615 8 211 17.7 20.9 0.00 0.00 0.00 69 1005.2
20260504140110 8 254 16.1 20.9 0.00 0.00 0.00 69 1004.8
20260504130539 8 228 20.9 24.1 0.00 0.00 0.00 66 1005.5
20260504110426 4 246 6.4 8.0 0.00 0.00 0.00 71 1005.8
20260504100343 2 201 4.8 4.8 0.00 0.00 0.00 77 1005.6
20260504081737 1 134 0.0 0.0 0.00 0.00 0.00 80 1005.2
20260504081233 1 150 0.0 0.0 0.00 0.00 0.00 80 1005.1
20260504080730 1 125 0.0 0.0 0.00 0.00 0.00 80 1005.3
20260504080226 1 126 0.0 0.0 0.00 0.00 0.00 80 1005.4
20260504070154 1 211 3.2 3.2 0.00 0.00 0.00 77 1005.4
20260504060114 1 196 1.6 1.6 0.00 0.00 0.00 78 1004.9
20260504050543 2 150 0.0 0.0 0.00 0.00 0.00 73 1004.8
20260504045536 2 162 1.6 3.2 0.00 0.00 0.00 74 1004.8
20260504045032 2 322 0.0 0.0 0.00 0.00 0.00 74 1004.9
20260504044530 2 63 1.6 1.6 0.00 0.00 0.00 74 1005.0
20260504044026 2 281 0.0 1.6 0.00 0.00 0.00 74 1004.8
20260504043523 2 164 0.0 1.6 0.00 0.00 0.00 73 1004.9
20260504043021 2 220 4.8 4.8 0.00 0.00 0.00 73 1004.9
20260504042517 3 252 4.8 8.0 0.00 0.00 0.00 73 1004.9
20260504042015 3 263 3.2 4.8 0.00 0.00 0.00 71 1004.9
20260504041510 3 1 3.2 3.2 0.00 0.00 0.00 71 1004.8
20260504041006 3 126 3.2 3.2 0.00 0.00 0.00 72 1004.9
20260504040504 3 227 3.2 4.8 0.00 0.00 0.00 72 1004.7
20260504040000 3 245 6.4 8.0 0.00 0.61 0.61 71 1004.8
20260504035458 3 295 9.7 14.5 0.00 0.61 0.61 72 1004.7
20260504034954 3 282 8.0 9.7 0.00 0.61 0.61 72 1004.4
20260504034452 3 245 8.0 9.7 0.00 0.61 0.61 72 1004.6
20260504033948 3 209 4.8 8.0 0.00 0.61 0.61 72 1004.5
20260504033446 3 240 6.4 9.7 0.00 0.61 0.61 72 1004.5
20260504032943 3 240 8.0 9.7 0.00 0.61 0.61 73 1004.5
20260504032440 3 165 1.6 1.6 0.00 0.61 0.61 72 1004.5
20260504031937 3 201 1.6 3.2 0.00 0.61 0.61 72 1004.5
20260504031434 3 173 1.6 3.2 0.00 0.61 0.61 72 1004.2
20260504030930 3 241 4.8 8.0 0.00 0.61 0.61 72 1004.1
20260504030427 3 273 6.4 8.0 0.00 0.61 0.61 72 1004.2
20260504025923 3 223 0.0 1.6 0.00 0.61 0.61 72 1004.1
20260504025420 3 306 0.0 0.0 0.00 0.61 0.61 72 1004.2
20260504024917 3 183 0.0 0.0 0.00 0.61 0.61 72 1004.0
20260504024414 3 165 1.6 1.6 0.00 0.61 0.61 71 1004.2
20260504023911 3 281 8.0 9.7 0.00 0.61 0.61 71 1004.2
20260504023408 3 255 9.7 11.3 0.00 0.61 0.61 71 1004.1
20260504022903 3 223 6.4 8.0 0.00 0.61 0.61 70 1004.1
20260504022400 3 121 4.8 8.0 0.00 0.61 0.61 70 1004.4
20260504021856 3 126 0.0 0.0 0.00 0.61 0.61 70 1004.1
20260504021354 4 259 8.0 9.7 0.00 0.61 0.61 70 1004.0
20260504020851 3 250 11.3 14.5 0.00 0.61 0.61 69 1004.1
20260504020348 4 247 8.0 9.7 0.00 0.61 0.61 69 1004.1
20260504015844 4 225 9.7 12.9 0.00 0.61 0.61 68 1003.9
20260504015340 4 295 4.8 8.0 0.00 0.61 0.61 68 1004.0
20260504014836 4 281 9.7 12.9 0.00 0.61 0.61 67 1004.0
20260504014332 4 249 9.7 11.3 0.00 0.61 0.61 68 1004.0
20260504013830 4 295 9.7 11.3 0.00 0.61 0.61 67 1004.0
20260504013328 4 193 1.6 3.2 0.00 0.61 0.61 68 1004.1
20260504012824 4 321 6.4 9.7 0.00 0.61 0.61 66 1003.9
20260504012322 4 146 1.6 3.2 0.00 0.61 0.61 68 1003.9
20260504011819 5 279 6.4 8.0 0.00 0.61 0.61 66 1003.9
20260504011316 5 288 8.0 11.3 0.00 0.61 0.61 66 1003.6
20260504010811 5 271 8.0 11.3 0.00 0.61 0.61 66 1003.8
20260504010307 5 295 8.0 9.7 0.00 0.61 0.61 66 1003.6
20260504005804 5 189 3.2 4.8 0.00 0.61 0.61 66 1003.6
20260504005301 5 254 9.7 12.9 0.00 0.61 0.61 66 1003.4
20260504004759 5 201 0.0 0.0 0.00 0.61 0.61 66 1003.5
20260504004256 5 128 4.8 4.8 0.00 0.61 0.61 65 1003.3
20260504003752 5 253 4.8 4.8 0.00 0.61 0.61 66 1003.5
20260504003249 5 268 9.7 12.9 0.00 0.61 0.61 65 1003.0
20260504002746 5 266 6.4 9.7 0.00 0.61 0.61 66 1003.4
20260504002243 5 274 11.3 12.9 0.00 0.61 0.61 65 1002.9
20260504001741 5 194 1.6 3.2 0.00 0.61 0.61 65 1003.2
20260504001237 5 235 4.8 8.0 0.00 0.61 0.61 65 1003.0
20260504000734 5 170 4.8 8.0 0.00 0.61 0.61 63 1002.7
20260504000233 5 304 8.0 11.3 0.00 0.61 0.61 63 1002.9
20260503235729 5 282 11.3 16.1 0.00 0.61 0.61 63 1003.0
20260503235226 5 239 4.8 4.8 0.00 0.61 0.61 63 1003.0
20260503234724 6 101 6.4 9.7 0.00 0.61 0.61 62 1002.6
20260503234222 5 256 22.5 46.7 0.00 0.61 0.61 63 1002.6
20260503233719 6 264 17.7 17.7 0.00 0.61 0.61 63 1002.8
20260503233214 6 316 11.3 12.9 0.00 0.61 0.61 62 1002.7
20260503232711 6 302 8.0 11.3 0.00 0.61 0.61 62 1002.6